GEFSMW_500_meanwind_162.txt.gz
Wind_Speed
22 22 21 21 21 21 21 22 23 25 26 27 28 29 30 30 30 31 30 29 28 28 29 29 29 28 28 28 27 27 28 28 28 28 28 27 27 28 28 29 28 28 28
22 23 23 23 24 23 24 24 25 26 27 28 29 29 30 30 30 30 29 29 29 29 29 29 28 28 28 28 27 28 28 28 28 28 27 26 26 28 28 28 28 28 28
24 24 24 24 24 24 24 25 26 27 28 28 29 30 30 31 30 30 29 28 28 29 29 28 28 28 28 28 29 29 28 28 27 27 27 27 27 27 26 27 28 28 28
25 25 24 25 24 25 25 26 26 27 28 29 30 30 31 30 29 29 29 28 28 28 29 29 28 28 28 28 28 28 28 28 27 27 27 27 27 27 26 26 28 28 27
25 23 24 24 24 24 25 26 27 28 29 30 29 29 30 30 29 28 29 29 29 29 29 29 29 28 28 27 27 28 28 28 27 27 26 26 26 27 27 27 26 27 27
24 23 23 23 24 24 25 26 27 28 29 28 28 29 29 28 29 29 29 30 29 29 29 29 28 27 27 27 27 26 26 26 26 25 25 25 25 26 26 26 25 26 26
23 23 23 23 23 24 25 26 27 28 28 28 28 29 29 29 29 29 29 29 28 28 28 27 27 26 26 26 26 26 26 25 25 24 24 25 24 24 25 25 25 25 25
22 22 21 22 23 24 25 26 27 28 27 28 28 29 29 29 29 28 27 26 26 26 26 25 25 25 25 26 26 26 27 26 26 25 25 25 25 25 24 24 25 24 24
22 21 22 22 23 24 25 26 27 28 27 27 28 28 28 27 27 26 26 25 25 25 25 25 24 24 24 25 25 26 26 26 26 25 25 24 24 25 24 24 24 24 24
21 21 22 23 23 24 25 25 26 27 27 27 27 26 26 26 26 25 25 25 25 24 24 24 24 24 24 24 25 25 25 25 25 24 24 23 23 23 24 24 23 23 23
22 21 22 22 23 23 24 24 25 25 26 26 26 26 26 25 25 25 25 25 24 24 24 24 24 23 23 24 24 24 24 24 23 23 24 23 23 23 23 23 22 22 22
22 22 22 22 22 23 23 23 24 24 25 25 24 24 25 25 25 25 25 24 24 23 24 24 24 24 24 24 24 23 23 23 23 23 23 22 22 22 22 22 21 21 21
22 22 22 23 23 23 23 23 23 23 24 23 23 24 24 24 24 24 23 23 23 23 23 23 23 23 23 23 23 22 21 21 22 22 22 22 21 21 21 20 20 20 21
23 22 22 22 23 23 22 22 22 23 23 22 22 23 23 22 22 22 21 22 22 21 22 21 21 21 22 21 21 21 20 20 20 20 20 20 20 19 19 20 20 20 20
21 20 20 21 22 21 21 21 21 22 22 21 21 22 22 22 21 20 20 20 20 20 19 18 18 19 19 19 19 19 19 18 18 18 17 17 17 17 18 18 18 18 18
20 19 20 20 20 20 20 20 20 21 20 20 21 22 22 21 20 19 19 18 18 18 17 17 17 17 17 17 17 17 17 16 16 15 15 15 15 15 16 16 16 16 16
18 18 18 18 18 19 19 20 19 19 19 20 20 21 20 19 17 17 18 17 17 17 17 16 17 17 16 15 15 14 14 14 13 13 13 13 13 13 13 13 13 14 15
17 17 17 17 18 18 18 17 17 18 19 19 20 20 18 17 16 16 15 15 16 16 16 16 16 15 15 14 14 13 12 11 11 11 12 11 11 11 12 12 12 12 13
16 16 17 16 17 17 17 17 17 18 17 18 18 18 17 16 15 15 15 14 14 14 14 14 14 13 13 13 12 12 10 10 10 10 10 10 10 9 9 10 10 10 10
15 16 16 15 15 14 15 16 16 16 16 16 17 16 15 15 14 14 14 13 13 13 13 14 14 13 12 12 12 10 10 10 10 10 9 9 9 8 8 9 9 10 10
14 13 13 13 13 13 13 14 14 13 14 14 15 15 14 14 14 13 12 12 12 12 13 13 13 12 12 12 12 11 11 11 11 10 9 9 8 9 9 9 8 9 10
12 12 12 12 12 12 12 11 11 11 12 13 14 14 13 13 12 11 11 12 12 12 12 13 13 12 13 12 12 11 11 10 10 10 10 10 9 9 9 9 9 9 9
10 11 11 11 11 10 10 10 10 11 12 12 13 13 12 12 12 12 12 12 12 12 13 13 13 14 13 13 13 12 11 11 10 10 10 10 10 9 9 9 9 9 9
10 10 9 9 9 8 8 9 9 10 11 12 12 12 12 12 12 12 13 13 13 13 13 14 14 14 13 13 13 12 11 11 11 11 10 10 10 10 10 9 10 10 9
8 8 7 7 7 7 7 8 8 9 10 10 11 12 12 12 12 13 13 13 13 14 14 14 14 14 14 14 13 13 12 11 11 12 11 11 11 11 11 11 11 11 12
7 7 7 6 5 6 7 7 8 8 8 10 11 12 12 12 13 13 13 14 14 14 15 15 15 15 16 15 14 13 13 13 13 13 12 12 11 12 11 11 11 11 12

GEFSMW_500_meanwind_168.txt.gz
Wind_Speed
21 20 18 19 19 20 20 21 21 21 22 23 24 24 25 25 25 26 26 27 27 27 28 28 28 28 28 27 28 28 28 28 29 28 28 27 28 27 26 26 27 27 27
22 22 19 19 20 21 19 20 20 21 22 24 25 24 25 25 26 27 27 28 28 28 27 28 27 27 27 27 27 27 27 28 28 28 27 27 27 27 26 25 25 25 26
23 21 22 22 21 21 20 19 19 20 22 23 23 23 25 26 26 27 27 28 28 28 28 27 26 26 26 26 26 26 25 26 26 27 26 26 26 26 26 25 25 25 24
23 23 21 19 18 19 19 20 20 20 21 22 23 24 25 25 26 26 27 27 28 28 28 27 26 25 26 26 26 25 25 25 25 25 25 26 25 23 23 24 24 24 24
21 19 18 19 19 19 19 21 21 21 22 22 23 25 25 26 26 27 26 26 27 27 27 26 26 26 26 26 25 26 25 25 24 24 24 24 24 23 22 22 23 23 23
19 18 17 17 18 18 20 21 21 21 22 23 24 25 25 26 26 26 26 26 27 26 26 26 25 25 25 26 25 25 24 24 24 23 23 23 23 23 22 21 22 23 23
17 17 17 18 17 18 19 20 21 21 22 23 24 25 25 25 26 26 26 26 26 26 25 25 24 24 25 25 24 23 23 23 23 23 23 23 23 23 23 22 23 23 23
16 17 17 17 18 19 20 20 21 22 23 24 24 25 25 25 25 25 26 25 25 24 23 23 23 24 24 23 23 22 21 22 23 23 23 23 23 23 23 23 24 23 24
16 16 16 17 18 18 19 20 21 21 22 23 24 25 24 24 24 24 25 24 24 23 23 23 23 22 22 22 22 21 20 21 21 22 22 22 22 22 23 24 25 24 24
16 17 17 18 18 18 18 20 20 21 22 24 24 24 23 23 23 24 24 23 23 23 22 22 22 21 21 20 20 20 19 19 20 20 21 21 22 23 23 23 24 24 24
15 17 18 19 18 19 19 20 20 22 23 24 24 23 23 23 23 23 23 23 22 22 22 21 21 20 20 20 19 19 19 19 19 20 20 21 22 23 23 23 23 23 24
16 17 18 19 18 19 20 20 20 21 22 23 23 22 22 22 22 22 22 22 22 21 21 21 20 20 19 19 19 18 18 18 19 20 20 21 21 22 22 23 23 22 23
15 16 17 17 17 19 19 19 20 21 21 22 22 20 21 21 21 21 21 21 21 21 21 20 20 20 19 19 18 18 18 18 19 20 20 20 21 21 21 21 21 21 21
17 16 17 16 17 18 19 20 20 21 21 21 20 19 20 20 20 20 21 21 20 20 20 19 19 19 18 18 18 18 19 19 19 18 17 18 18 18 18 19 19 20 20
16 16 16 16 17 17 19 20 19 20 21 20 19 19 19 19 19 19 19 19 18 18 18 18 17 17 17 17 17 17 18 17 17 17 17 17 16 16 17 17 17 17 18
16 16 16 16 16 17 18 18 19 20 20 19 18 18 18 17 17 17 17 16 15 16 16 16 16 16 16 16 16 16 16 16 16 16 15 16 15 15 15 15 15 15 16
16 16 16 15 15 16 17 17 18 19 18 17 17 16 16 15 15 15 15 14 14 15 15 15 15 15 15 15 15 15 15 15 15 15 14 14 14 14 13 13 13 14 15
15 15 14 14 14 15 16 17 17 16 16 15 16 16 15 14 14 14 15 14 14 15 15 16 15 15 15 15 15 14 14 14 14 13 12 12 12 12 12 12 12 13 13
13 13 13 13 15 15 15 15 14 14 14 14 14 14 13 13 14 14 14 14 14 14 15 15 15 15 15 15 15 14 13 13 13 12 12 12 12 12 12 11 11 12 12
11 11 12 13 13 13 13 13 13 13 14 13 14 13 13 13 13 14 14 13 14 14 15 15 15 15 15 15 15 15 14 14 13 13 13 12 12 12 12 12 12 11 12
11 11 12 12 11 11 12 12 12 12 13 12 12 12 12 12 13 13 13 13 13 14 14 14 15 15 16 16 16 15 15 14 13 13 13 12 12 12 12 11 11 11 12
11 11 12 11 10 10 11 11 11 11 11 10 10 11 11 12 12 12 13 13 13 13 13 14 15 15 16 16 16 15 15 14 13 13 13 13 13 13 12 11 11 10 11
10 10 11 10 9 9 10 10 10 10 9 9 10 10 11 11 12 12 13 13 13 13 13 14 15 15 16 16 16 15 14 14 14 14 13 13 13 13 12 11 11 11 12
7 8 9 8 8 8 8 8 9 9 9 9 9 9 10 11 11 12 13 13 13 14 14 15 15 16 17 17 16 15 15 14 14 14 14 14 14 13 13 13 13 13 13
7 7 7 7 7 7 7 8 8 8 8 8 8 8 10 11 11 12 13 14 14 15 15 15 16 16 17 17 16 15 15 14 14 14 15 14 14 13 14 14 14 14 14
6 7 7 6 6 6 7 7 7 7 7 7 8 8 9 10 11 12 13 14 15 15 16 16 16 17 17 17 17 16 15 15 15 15 15 15 15 15 15 15 15 15 15

GEFSMW_500_meanwind_174.txt.gz
Wind_Speed
19 20 21 20 19 18 19 19 20 21 21 21 22 22 22 23 24 25 27 27 27 28 29 29 29 30 30 30 30 30 30 29 29 30 30 30 29 29 29 29 29 30 29
20 20 20 19 18 19 20 20 20 20 19 20 21 22 22 22 23 24 26 27 28 28 28 29 29 30 30 30 30 30 30 29 30 30 29 29 28 29 29 28 28 29 28
20 20 20 19 19 19 19 20 20 20 20 19 20 21 22 23 24 25 26 26 27 27 28 29 29 30 30 29 30 30 30 30 29 29 28 28 27 27 28 28 28 28 28
20 19 19 19 18 18 18 19 20 20 19 19 20 21 22 23 24 25 26 26 26 27 28 29 29 30 30 29 29 29 30 30 29 29 28 28 27 27 27 28 29 28 28
18 17 17 17 18 18 18 19 19 19 20 19 20 21 22 23 24 24 25 25 26 26 27 28 28 28 28 28 29 29 30 29 28 27 27 28 28 27 26 27 27 28 28
18 18 18 18 18 19 19 20 20 20 19 19 20 21 23 24 24 24 25 25 26 26 27 27 27 27 27 27 28 27 27 27 26 27 27 27 26 26 26 27 27 27 27
18 18 17 18 18 20 20 20 19 19 19 20 21 22 23 23 23 24 25 25 26 26 26 26 27 26 26 25 26 25 25 26 26 25 24 24 25 26 26 26 26 26 26
17 17 17 18 18 19 19 19 18 19 19 20 21 23 23 23 24 25 25 25 25 25 25 26 26 25 24 24 24 24 23 23 24 24 24 24 25 26 26 25 25 25 26
18 18 18 19 18 18 18 18 17 19 20 21 22 22 23 24 24 25 24 25 25 25 25 25 25 24 23 23 22 23 23 23 23 23 24 24 24 24 24 24 25 25 25
17 16 17 18 18 17 17 18 18 18 20 21 22 22 23 24 24 24 24 24 24 25 25 25 24 24 23 22 21 21 21 22 22 22 22 23 23 23 24 24 25 26 26
17 17 18 18 18 17 18 18 18 19 20 21 21 22 23 23 24 24 24 24 24 24 24 24 24 23 23 22 21 21 21 21 21 21 21 22 22 22 22 23 24 25 26
17 17 17 17 17 17 18 18 18 19 20 21 22 23 24 23 23 24 24 24 24 23 23 23 23 23 23 22 22 21 21 21 21 21 21 21 22 22 21 21 22 24 24
17 17 17 17 17 17 17 18 19 19 20 21 22 22 23 22 22 23 23 23 22 21 21 22 22 22 22 22 22 20 20 20 20 20 20 20 20 20 20 21 21 22 23
18 17 16 17 16 16 16 18 19 20 21 21 21 21 21 21 21 21 21 21 20 20 20 20 20 20 20 20 20 20 19 19 18 18 18 19 18 19 20 20 20 21 22
17 17 17 16 16 16 17 17 18 19 19 19 19 20 20 20 20 20 20 20 19 19 18 18 18 19 19 19 19 19 19 19 18 18 18 18 18 18 19 19 20 20 21
18 18 18 17 17 16 16 17 17 19 19 18 18 18 19 19 18 18 18 18 17 17 17 17 18 18 19 19 19 19 19 18 18 18 18 18 18 18 19 19 19 19 18
19 18 17 17 17 16 16 17 17 18 18 18 17 17 18 17 17 18 17 16 16 17 17 17 18 18 19 19 19 19 19 19 18 18 17 17 17 17 17 17 16 16 16
19 18 17 16 15 15 15 16 16 16 16 17 17 17 17 16 16 16 16 15 16 16 16 17 18 18 18 19 19 19 19 19 18 18 17 17 17 16 16 16 16 16 16
16 15 15 15 14 14 14 15 15 15 15 16 15 15 15 15 14 15 15 15 16 16 16 17 17 18 19 19 19 19 19 19 19 18 17 17 17 17 16 17 16 16 17
15 14 14 13 13 13 13 13 14 14 15 15 14 14 14 14 14 14 14 15 16 16 16 16 17 18 19 19 19 20 20 20 19 18 18 18 18 18 17 17 17 17 17
14 13 13 12 12 12 12 12 12 13 13 13 13 13 13 13 14 13 14 15 15 16 16 17 18 18 19 19 19 20 20 20 19 18 18 19 19 19 19 18 18 18 18
12 11 11 11 11 11 11 11 11 11 12 12 12 12 13 13 13 13 13 14 15 16 16 18 18 19 19 18 19 20 20 20 19 18 18 19 19 19 19 18 18 17 17
10 10 10 10 9 9 9 9 10 10 11 11 11 12 12 12 12 12 13 14 16 16 17 18 18 18 18 19 19 21 21 21 20 19 19 19 19 19 19 19 18 17 16
9 9 9 8 8 7 8 8 9 9 10 10 11 11 11 11 12 13 14 14 15 17 18 18 18 18 19 20 21 21 21 21 20 20 20 20 20 20 19 19 19 18 17
8 8 7 7 7 6 7 8 8 8 8 9 10 10 10 11 12 13 13 14 16 18 18 18 19 20 20 21 21 21 21 22 21 22 22 21 21 21 20 20 20 20 20
7 7 6 6 6 6 7 7 7 7 8 9 9 9 10 11 12 13 14 15 16 18 19 20 20 21 21 21 21 22 23 23 24 23 23 23 23 22 21 21 21 21 21

GEFSMW_500_meanwind_180.txt.gz
Wind_Speed
21 21 21 22 22 23 24 25 24 24 24 24 24 24 25 25 26 26 26 26 26 27 28 29 30 31 31 31 31 31 31 31 32 32 32 31 31 31 32 31 31 30 31
21 21 21 22 22 23 23 23 22 23 23 23 23 24 25 26 26 26 26 25 26 26 27 28 29 29 30 30 30 30 30 31 31 31 31 30 31 32 31 31 31 30 31
20 20 21 21 21 22 21 22 22 22 23 23 23 24 25 25 25 25 25 25 25 26 26 26 27 28 29 28 28 28 29 30 30 30 30 29 30 31 31 30 30 30 31
19 20 20 21 20 20 21 22 22 22 22 23 24 24 25 25 25 25 25 25 25 25 25 26 26 27 27 27 28 28 28 28 28 29 29 29 29 30 30 30 30 29 29
19 20 21 20 19 19 20 21 21 22 22 23 23 24 25 24 25 25 25 25 25 25 25 25 26 26 26 26 27 27 27 28 27 27 27 27 28 29 28 28 30 29 29
19 20 20 19 19 20 20 20 22 22 22 22 23 24 25 25 25 24 25 25 26 25 25 26 26 26 26 26 26 27 27 27 26 26 26 26 27 27 27 27 28 28 28
20 20 19 19 20 20 20 20 21 22 22 22 22 23 23 24 23 22 23 25 25 26 26 26 25 25 25 25 26 27 26 26 26 26 26 26 27 26 26 26 27 27 28
18 18 18 19 20 20 21 21 21 22 21 21 22 22 22 22 22 22 22 23 23 24 25 25 25 25 25 25 26 26 26 26 25 25 25 24 24 24 24 25 26 26 26
18 18 18 19 19 20 21 21 21 21 21 21 21 21 21 22 22 22 22 23 24 24 24 24 24 25 24 25 25 25 25 25 24 24 23 22 22 23 23 23 25 25 25
18 19 19 19 20 20 19 19 20 20 20 21 21 21 22 21 22 22 22 23 23 23 23 24 24 24 23 23 24 24 24 24 24 23 21 20 20 21 21 21 21 22 23
19 19 20 20 20 19 18 19 19 19 19 19 20 20 21 21 21 22 22 22 22 22 22 22 23 23 22 22 23 23 23 23 23 22 21 20 20 20 20 20 20 20 22
20 20 19 19 18 18 18 18 18 18 18 18 18 19 19 19 20 20 21 21 21 21 22 22 21 21 21 22 22 22 22 22 22 22 21 20 19 19 18 18 18 19 20
20 19 19 19 18 18 18 18 17 17 17 17 17 18 18 18 19 19 20 20 19 20 21 20 19 19 19 20 21 21 21 21 21 20 19 18 18 18 18 17 17 18 19
19 19 19 19 19 18 18 17 17 17 17 16 17 17 18 18 18 18 19 19 19 19 19 19 18 18 19 19 19 20 20 20 20 19 18 17 17 17 17 17 18 18 18
19 18 18 18 18 18 17 16 15 15 16 16 16 17 17 17 17 18 18 18 18 18 19 18 17 18 18 18 19 19 19 19 19 19 18 17 17 18 17 18 19 20 20
20 19 19 18 17 17 16 15 15 15 16 15 16 16 16 16 17 17 17 17 17 17 17 17 17 18 18 18 19 20 20 20 20 19 19 18 18 17 17 18 19 19 20
20 20 19 18 17 16 16 15 15 15 15 14 15 15 16 16 16 16 16 17 17 16 16 16 17 18 18 19 19 20 20 20 20 20 19 18 18 18 17 18 18 18 19
20 19 19 18 17 16 15 15 14 14 13 13 14 15 15 15 15 15 15 15 16 16 16 17 18 18 18 19 19 19 19 20 20 19 19 19 19 19 18 18 18 19 19
19 19 19 18 17 15 14 14 13 13 12 12 13 14 14 14 14 14 14 14 15 16 16 17 17 18 18 18 18 18 19 19 19 20 20 20 20 19 19 19 19 19 19
18 18 18 16 14 13 13 13 11 11 11 12 12 13 13 13 13 13 14 14 16 17 17 17 17 17 17 18 18 19 20 20 20 20 21 21 21 20 19 19 19 19 19
16 16 15 13 13 11 11 11 10 10 10 11 11 12 12 12 12 13 13 14 16 16 16 17 17 17 18 19 19 20 21 21 21 21 22 22 21 21 21 20 20 19 19
13 13 13 12 12 11 10 9 8 8 9 10 10 11 12 12 12 13 13 14 15 15 16 17 17 18 19 19 19 20 21 21 21 22 22 22 22 22 22 21 20 20 19
11 11 11 11 11 10 8 7 7 8 8 9 10 11 11 11 11 12 13 13 14 15 16 17 17 18 18 18 19 20 21 22 22 23 22 23 23 23 23 22 21 20 19
10 10 10 10 8 7 6 5 5 6 6 7 9 10 10 11 11 12 12 13 14 15 16 17 17 18 19 19 20 21 22 22 23 23 23 23 23 23 23 23 22 21 20
9 8 8 7 6 5 4 4 4 5 6 6 8 9 10 11 11 11 12 13 14 15 17 18 18 19 19 20 22 23 23 23 23 24 24 24 24 24 24 24 23 23 22
7 7 6 5 4 4 3 3 3 4 5 6 7 8 9 11 11 11 12 13 15 16 18 19 19 20 21 22 23 23 24 24 25 25 25 25 25 25 24 24 24 23 23

GEFSMW_500_meanwind_186.txt.gz
Wind_Speed
24 23 23 24 24 24 24 25 26 27 28 28 28 28 27 27 27 27 27 27 26 26 27 28 27 28 28 29 29 29 29 29 30 30 30 30 30 30 30 30 31 31 31
22 22 23 23 23 23 24 25 26 27 28 28 27 27 27 27 27 27 25 24 25 26 27 27 28 29 29 29 30 29 29 30 30 30 30 29 29 29 30 30 29 29 30
23 23 22 23 23 23 24 25 26 27 27 27 27 27 27 27 26 26 26 26 26 26 27 27 28 29 30 29 29 29 30 30 30 31 31 30 28 27 28 29 29 29 29
24 24 24 24 24 24 25 26 26 27 27 27 27 28 27 26 26 27 26 26 26 26 26 27 28 29 29 29 29 29 29 30 30 30 30 29 28 27 26 26 26 27 27
25 25 24 24 24 25 25 26 26 27 26 26 26 26 26 26 25 26 26 25 25 26 27 28 28 28 28 28 28 28 28 29 29 28 28 28 28 28 27 25 25 26 25
26 26 25 25 26 27 27 26 26 26 25 25 25 26 26 26 25 25 26 25 26 26 27 27 27 27 27 27 26 26 27 28 27 27 27 27 28 28 26 25 24 24 24
26 25 26 26 27 27 27 27 26 25 25 25 25 25 25 24 24 25 26 26 26 25 26 26 26 26 26 26 26 26 26 27 27 26 27 28 28 26 26 25 24 23 23
26 26 26 27 27 27 27 26 25 25 25 25 25 25 24 24 24 25 25 26 26 24 24 25 25 26 26 26 26 27 27 27 26 26 27 28 27 25 25 24 23 21 21
27 27 26 26 26 26 25 25 25 25 25 24 24 24 23 23 24 24 25 24 23 23 23 24 25 25 26 26 26 26 26 26 26 26 26 27 26 25 24 23 22 21 21
27 27 27 26 25 25 25 25 25 24 24 23 23 23 23 22 23 22 22 21 21 21 21 22 23 24 25 26 26 26 26 25 25 25 25 25 24 23 22 21 21 21 21
27 25 26 26 25 24 25 25 23 23 22 22 21 21 21 21 21 21 21 21 21 20 20 21 22 23 24 24 25 25 24 24 25 25 25 24 24 23 22 22 21 21 21
27 26 25 24 24 24 24 23 22 22 21 20 20 19 19 19 20 20 20 21 21 20 21 21 22 23 24 24 25 25 24 24 24 24 24 24 23 22 22 21 21 20 20
26 25 24 24 24 24 23 21 21 20 20 20 20 19 19 19 19 19 19 20 19 19 20 22 22 23 24 24 24 24 24 24 24 24 24 23 22 21 21 21 20 20 20
25 24 24 24 24 23 22 20 20 20 20 19 19 18 18 19 18 18 19 19 19 20 21 21 22 23 23 23 23 23 23 23 23 22 22 22 22 22 21 21 20 20 21
24 23 24 24 22 21 21 20 19 20 19 18 18 18 18 18 17 18 18 19 19 20 21 21 22 22 22 23 23 22 22 22 22 22 22 22 23 23 23 22 21 21 21
23 23 23 22 20 20 20 19 18 18 18 18 17 17 17 16 16 17 18 18 19 20 21 21 21 22 22 22 22 22 22 22 23 23 23 22 23 23 23 23 22 22 22
24 23 21 21 20 19 19 19 18 18 17 17 17 16 16 15 15 16 16 17 18 20 20 21 21 21 22 22 21 22 22 23 23 23 23 23 23 24 23 23 23 23 22
23 22 20 19 18 18 19 18 18 17 16 16 16 15 14 14 15 15 16 17 18 19 19 20 21 21 21 22 22 22 23 23 23 23 23 24 24 25 25 24 23 23 23
22 20 19 18 18 18 18 18 17 16 16 15 13 13 12 13 14 15 15 16 18 18 18 20 21 21 21 22 22 23 23 23 24 24 24 25 25 25 25 24 22 22 22
21 20 19 19 17 16 16 16 16 16 14 13 11 10 11 12 14 14 15 16 16 17 18 19 20 21 21 21 22 23 23 24 25 25 25 25 25 25 24 24 23 23 22
21 20 18 17 16 15 15 15 15 14 12 11 9 9 10 11 12 13 14 15 16 16 17 18 19 20 21 21 22 23 24 25 25 25 25 26 26 25 25 24 23 23 23
20 18 16 15 14 14 13 12 11 11 10 8 7 7 9 11 11 12 13 15 15 16 17 18 19 20 20 21 22 24 25 25 24 25 26 26 26 25 25 24 23 23 22
19 17 15 13 12 10 10 9 9 8 6 5 5 7 9 10 11 12 13 14 15 16 17 18 19 20 21 21 22 24 25 25 25 25 25 25 26 26 25 24 23 23 23
16 15 13 12 9 8 8 8 7 6 5 5 5 6 8 9 10 12 13 14 15 16 17 18 19 20 21 22 24 25 25 25 26 26 26 26 26 26 25 25 25 25 24
14 14 12 9 8 7 7 6 5 5 5 5 6 7 8 9 10 12 13 14 16 17 18 19 20 21 22 24 25 26 26 26 26 26 26 26 26 27 27 26 26 26 25
11 11 10 8 7 6 6 4 4 4 4 5 5 7 8 9 10 11 13 15 16 17 19 20 21 22 23 25 26 27 27 26 26 27 27 27 27 27 27 27 27 26 26